Year,Month,Day,Hour,Minute,Value (Times are PST for temperature in C)
2021,08,13,09,07,22.90
2021,08,13,09,08,22.90
2021,08,13,09,09,23.00
2021,08,13,09,10,23.10
2021,08,13,09,11,23.10
2021,08,13,09,12,23.20
2021,08,13,09,13,23.20
2021,08,13,09,14,23.30
2021,08,13,09,15,23.30
2021,08,13,09,16,23.30
2021,08,13,09,17,23.40
2021,08,13,09,18,23.40
2021,08,13,09,19,23.50
2021,08,13,09,20,23.60
2021,08,13,09,21,23.60
2021,08,13,09,22,23.70
2021,08,13,09,23,23.70
2021,08,13,09,24,23.70
2021,08,13,09,25,23.70
2021,08,13,09,26,23.70
2021,08,13,09,27,23.80
2021,08,13,09,28,23.80
2021,08,13,09,29,23.90
2021,08,13,09,30,24.00
2021,08,13,09,31,24.10
2021,08,13,09,32,24.10
2021,08,13,09,33,24.20
2021,08,13,09,34,24.30
2021,08,13,09,35,24.40
2021,08,13,09,36,24.50
2021,08,13,09,37,24.60
2021,08,13,09,38,24.70
2021,08,13,09,39,24.70
2021,08,13,09,40,24.80
2021,08,13,09,41,24.90
2021,08,13,09,42,24.90
2021,08,13,09,43,24.90
2021,08,13,09,44,25.00
2021,08,13,09,45,25.00
2021,08,13,09,46,25.10
2021,08,13,09,47,25.10
2021,08,13,09,48,25.20
2021,08,13,09,49,25.20
2021,08,13,09,50,25.20
2021,08,13,09,51,25.30
2021,08,13,09,52,25.30
2021,08,13,09,53,25.30
2021,08,13,09,54,25.30
2021,08,13,09,55,25.30
2021,08,13,09,56,25.40
2021,08,13,09,57,25.40
2021,08,13,09,58,25.40
2021,08,13,09,59,25.50
2021,08,13,10,00,25.60
2021,08,13,10,01,25.60
2021,08,13,10,02,25.70
2021,08,13,10,03,25.80
2021,08,13,10,04,25.80
2021,08,13,10,05,25.90
2021,08,13,10,06,26.00
2021,08,13,10,07,26.10
2021,08,13,10,08,26.20
2021,08,13,10,09,26.30
2021,08,13,10,10,26.40
2021,08,13,10,11,26.50
2021,08,13,10,12,26.60
2021,08,13,10,13,26.60
2021,08,13,10,14,26.70
2021,08,13,10,15,26.70
2021,08,13,10,16,26.80
2021,08,13,10,17,26.90
2021,08,13,10,18,27.00
2021,08,13,10,19,27.10
2021,08,13,10,20,27.20
2021,08,13,10,21,27.20
2021,08,13,10,22,27.20
2021,08,13,10,23,27.20
2021,08,13,10,24,27.20
2021,08,13,10,25,27.20
2021,08,13,10,26,27.20
2021,08,13,10,27,27.20
2021,08,13,10,28,27.20
2021,08,13,10,29,27.20
2021,08,13,10,30,27.30
2021,08,13,10,31,27.30
2021,08,13,10,32,27.40
2021,08,13,10,33,27.50
2021,08,13,10,34,27.60
2021,08,13,10,35,27.60
2021,08,13,10,36,27.70
2021,08,13,10,37,27.70
2021,08,13,10,38,27.80
2021,08,13,10,39,27.90
2021,08,13,10,40,28.00
2021,08,13,10,41,28.00
2021,08,13,10,42,28.10
2021,08,13,10,43,28.10
2021,08,13,10,44,28.20
2021,08,13,10,45,28.20
2021,08,13,10,46,28.30
2021,08,13,10,47,28.40
2021,08,13,10,48,28.40
2021,08,13,10,49,28.30
2021,08,13,10,50,28.00
2021,08,13,10,51,27.60
2021,08,13,10,52,27.20
2021,08,13,10,53,26.70
2021,08,13,10,54,26.40
2021,08,13,10,55,26.10
2021,08,13,10,56,25.90
2021,08,13,10,57,25.70
2021,08,13,10,58,25.60
2021,08,13,10,59,25.50
2021,08,13,11,00,25.40
2021,08,13,11,01,25.40
2021,08,13,11,02,25.30
2021,08,13,11,03,25.10
2021,08,13,11,04,25.00
2021,08,13,11,05,25.00
2021,08,13,11,06,24.90
2021,08,13,11,07,24.90
2021,08,13,11,08,24.80
2021,08,13,11,09,24.80
2021,08,13,11,10,24.80
2021,08,13,11,11,24.80
2021,08,13,11,12,24.80
2021,08,13,11,13,24.90
2021,08,13,11,14,24.90
2021,08,13,11,15,25.00
2021,08,13,11,16,25.00
2021,08,13,11,17,25.10
2021,08,13,11,18,25.20
2021,08,13,11,19,25.20
2021,08,13,11,20,25.30
2021,08,13,11,21,25.30
2021,08,13,11,22,25.30
2021,08,13,11,23,25.40
2021,08,13,11,24,25.40
2021,08,13,11,25,25.40
2021,08,13,11,26,25.50
2021,08,13,11,27,25.50
2021,08,13,11,28,25.50
2021,08,13,11,29,25.50
2021,08,13,11,30,25.50
2021,08,13,11,31,25.50
2021,08,13,11,32,25.50
2021,08,13,11,33,25.40
2021,08,13,11,34,25.40
2021,08,13,11,35,25.40
2021,08,13,11,36,25.40
2021,08,13,11,37,25.40
2021,08,13,11,38,25.40
2021,08,13,11,39,25.40
2021,08,13,11,40,25.40
2021,08,13,11,41,25.40
2021,08,13,11,42,25.40
2021,08,13,11,43,25.40
2021,08,13,11,44,25.40
2021,08,13,11,45,25.30
2021,08,13,11,46,25.30
2021,08,13,11,47,25.20
2021,08,13,11,48,25.20
2021,08,13,11,49,25.20
2021,08,13,11,50,25.30
2021,08,13,11,51,25.30
2021,08,13,11,52,25.20
2021,08,13,11,53,25.20
2021,08,13,11,54,25.20
2021,08,13,11,55,25.20
2021,08,13,11,56,25.30
2021,08,13,11,57,25.30
2021,08,13,11,58,25.40
2021,08,13,11,59,25.40
2021,08,13,12,00,25.50
2021,08,13,12,01,25.50
2021,08,13,12,02,25.50
2021,08,13,12,03,25.50
2021,08,13,12,04,25.60
2021,08,13,12,05,25.60
2021,08,13,12,06,25.60
2021,08,13,12,07,25.70
2021,08,13,12,08,25.70
2021,08,13,12,09,25.70
2021,08,13,12,10,25.80
2021,08,13,12,11,25.80
2021,08,13,12,12,25.80
2021,08,13,12,13,25.80
2021,08,13,12,14,25.80
2021,08,13,12,15,25.80
2021,08,13,12,16,25.90
2021,08,13,12,17,25.90
2021,08,13,12,18,26.00
2021,08,13,12,19,26.00
2021,08,13,12,20,26.10
2021,08,13,12,21,26.10
2021,08,13,12,22,26.20
2021,08,13,12,23,26.20
2021,08,13,12,24,26.20
2021,08,13,12,25,26.20
2021,08,13,12,26,26.20
2021,08,13,12,27,26.20
2021,08,13,12,28,26.20
2021,08,13,12,29,26.20
2021,08,13,12,30,26.20
2021,08,13,12,31,26.20
2021,08,13,12,32,26.20
2021,08,13,12,33,26.20
2021,08,13,12,34,26.30
2021,08,13,12,35,26.40
2021,08,13,12,36,26.50
2021,08,13,12,37,26.60
2021,08,13,12,38,26.70
2021,08,13,12,39,26.80
2021,08,13,12,40,26.70
2021,08,13,12,41,26.70
2021,08,13,12,42,26.70
2021,08,13,12,43,26.70
2021,08,13,12,44,26.70
2021,08,13,12,45,26.70
2021,08,13,12,46,26.60
2021,08,13,12,47,26.60
2021,08,13,12,48,26.60
2021,08,13,12,49,26.50
2021,08,13,12,50,26.40
2021,08,13,12,51,26.30
2021,08,13,12,52,26.30
2021,08,13,12,53,26.20
2021,08,13,12,54,26.10
2021,08,13,12,55,26.10
2021,08,13,12,56,26.10
2021,08,13,12,57,26.10
2021,08,13,12,58,26.10
2021,08,13,12,59,26.20
2021,08,13,13,00,26.20
2021,08,13,13,01,26.30
2021,08,13,13,02,26.40
2021,08,13,13,03,26.40
2021,08,13,13,04,26.40
2021,08,13,13,05,26.60
2021,08,13,13,06,26.60
2021,08,13,13,07,26.60
2021,08,13,13,08,26.70
2021,08,13,13,09,26.70
2021,08,13,13,10,26.80
2021,08,13,13,11,26.90
2021,08,13,13,12,26.90
2021,08,13,13,13,27.00
2021,08,13,13,14,27.10
2021,08,13,13,15,27.20
2021,08,13,13,16,27.20
2021,08,13,13,17,27.10
2021,08,13,13,18,27.20
2021,08,13,13,19,27.20
2021,08,13,13,20,27.30
2021,08,13,13,21,27.30
2021,08,13,13,22,27.30
2021,08,13,13,23,27.30
2021,08,13,13,24,27.40
2021,08,13,13,25,27.40
2021,08,13,13,26,27.40
2021,08,13,13,27,27.40
2021,08,13,13,28,27.40
2021,08,13,13,29,27.30
2021,08,13,13,30,27.30
2021,08,13,13,31,27.30
2021,08,13,13,32,27.40
2021,08,13,13,33,27.40
2021,08,13,13,34,27.50
2021,08,13,13,35,27.60
2021,08,13,13,36,27.60
2021,08,13,13,37,27.60
2021,08,13,13,38,27.60
2021,08,13,13,39,27.60
2021,08,13,13,40,27.60
2021,08,13,13,41,27.60
2021,08,13,13,42,27.60
2021,08,13,13,43,27.70
2021,08,13,13,44,27.70
2021,08,13,13,45,27.80
2021,08,13,13,46,27.80
2021,08,13,13,47,27.90
2021,08,13,13,48,28.00
2021,08,13,13,49,28.10
2021,08,13,13,50,28.20
2021,08,13,13,51,28.20
2021,08,13,13,52,28.20
2021,08,13,13,53,28.10
2021,08,13,13,54,28.20
2021,08,13,13,55,28.20
2021,08,13,13,56,28.20
2021,08,13,13,57,28.10
2021,08,13,13,58,28.10
2021,08,13,13,59,28.20
2021,08,13,14,00,28.20
2021,08,13,14,01,28.30
2021,08,13,14,02,28.40
2021,08,13,14,03,28.50
2021,08,13,14,04,28.60
2021,08,13,14,05,28.60
2021,08,13,14,06,28.60
2021,08,13,14,07,28.70
2021,08,13,14,08,28.80
2021,08,13,14,09,28.90
2021,08,13,14,10,28.90
2021,08,13,14,11,28.80
2021,08,13,14,12,28.60
2021,08,13,14,13,28.60
2021,08,13,14,14,28.50
2021,08,13,14,15,28.40
2021,08,13,14,16,28.20
2021,08,13,14,17,28.20
2021,08,13,14,18,28.20
2021,08,13,14,19,28.20
2021,08,13,14,20,28.10
2021,08,13,14,21,28.10
2021,08,13,14,22,28.10
2021,08,13,14,23,28.00
2021,08,13,14,24,28.00
2021,08,13,14,25,27.90
2021,08,13,14,26,27.90
2021,08,13,14,27,27.90
2021,08,13,14,28,27.80
2021,08,13,14,29,27.90
2021,08,13,14,30,27.90
2021,08,13,14,31,28.00
2021,08,13,14,32,28.10
2021,08,13,14,33,28.10
2021,08,13,14,34,28.20
2021,08,13,14,35,28.20
2021,08,13,14,36,28.10
2021,08,13,14,37,28.10
2021,08,13,14,38,28.00
2021,08,13,14,39,28.10
2021,08,13,14,40,28.20
2021,08,13,14,41,28.20
2021,08,13,14,42,28.20
2021,08,13,14,43,28.20
2021,08,13,14,44,28.20
2021,08,13,14,45,28.10
2021,08,13,14,46,28.10
2021,08,13,14,47,28.10
2021,08,13,14,48,28.00
2021,08,13,14,49,27.90
2021,08,13,14,50,27.90
2021,08,13,14,51,27.80
2021,08,13,14,52,27.80
2021,08,13,14,53,27.90
2021,08,13,14,54,27.80
2021,08,13,14,55,27.80
2021,08,13,14,56,27.90
2021,08,13,14,57,27.90
2021,08,13,14,58,27.80
2021,08,13,14,59,27.80
2021,08,13,15,00,27.80
2021,08,13,15,01,27.90
2021,08,13,15,02,27.90
2021,08,13,15,03,28.00
2021,08,13,15,04,28.00
2021,08,13,15,05,28.00
2021,08,13,15,06,28.00
2021,08,13,15,07,28.00
2021,08,13,15,08,28.10
2021,08,13,15,09,28.10
2021,08,13,15,10,28.00
2021,08,13,15,11,28.00
2021,08,13,15,12,28.00
2021,08,13,15,13,28.10
2021,08,13,15,14,28.20
2021,08,13,15,15,28.20
2021,08,13,15,16,28.30
2021,08,13,15,17,28.30
2021,08,13,15,18,28.40
2021,08,13,15,19,28.50
2021,08,13,15,20,28.60
2021,08,13,15,21,28.70
2021,08,13,15,22,28.70
2021,08,13,15,23,28.80
2021,08,13,15,24,28.80
2021,08,13,15,25,28.80
2021,08,13,15,26,28.80
2021,08,13,15,27,28.80
2021,08,13,15,28,28.80
2021,08,13,15,29,28.80
2021,08,13,15,30,28.80
2021,08,13,15,31,28.80
2021,08,13,15,32,28.80
2021,08,13,15,33,28.70
2021,08,13,15,34,28.70
2021,08,13,15,35,28.70
2021,08,13,15,36,28.70
2021,08,13,15,37,28.70
2021,08,13,15,38,28.70
2021,08,13,15,39,28.70
2021,08,13,15,40,28.70
2021,08,13,15,41,28.60
2021,08,13,15,42,28.60
2021,08,13,15,43,28.40
2021,08,13,15,44,28.40
2021,08,13,15,45,28.30
2021,08,13,15,46,28.20
2021,08,13,15,47,28.20
2021,08,13,15,48,28.10
2021,08,13,15,49,28.10
2021,08,13,15,50,28.00
2021,08,13,15,51,28.00
2021,08,13,15,52,28.00
2021,08,13,15,53,28.00
2021,08,13,15,54,27.90
2021,08,13,15,55,27.90
2021,08,13,15,56,27.80
2021,08,13,15,57,27.90
2021,08,13,15,58,27.90
2021,08,13,15,59,28.00
2021,08,13,16,00,28.00
2021,08,13,16,01,28.00
2021,08,13,16,02,28.00
2021,08,13,16,03,28.00
2021,08,13,16,04,28.00
2021,08,13,16,05,28.00
2021,08,13,16,06,28.00
2021,08,13,16,07,27.90
2021,08,13,16,08,28.00
2021,08,13,16,09,28.00
2021,08,13,16,10,28.00
2021,08,13,16,11,28.00
2021,08,13,16,12,28.00
2021,08,13,16,13,28.10
2021,08,13,16,14,28.10
2021,08,13,16,15,28.10
2021,08,13,16,16,28.10
2021,08,13,16,17,28.00
2021,08,13,16,18,28.10
2021,08,13,16,19,28.10
2021,08,13,16,20,28.10
2021,08,13,16,21,28.10
2021,08,13,16,22,28.10
2021,08,13,16,23,28.10
2021,08,13,16,24,28.20
2021,08,13,16,25,28.20
2021,08,13,16,26,28.20
2021,08,13,16,27,28.20
2021,08,13,16,28,28.10
2021,08,13,16,29,28.10
2021,08,13,16,30,28.10
2021,08,13,16,31,28.10
2021,08,13,16,32,28.10
2021,08,13,16,33,28.10
2021,08,13,16,34,28.10
2021,08,13,16,35,28.10
2021,08,13,16,36,28.00
2021,08,13,16,37,28.00
2021,08,13,16,38,27.90
2021,08,13,16,39,27.90
2021,08,13,16,40,27.90
2021,08,13,16,41,27.80
2021,08,13,16,42,27.80
2021,08,13,16,43,27.70
2021,08,13,16,44,27.70
2021,08,13,16,45,27.70
2021,08,13,16,46,27.70
2021,08,13,16,47,27.80
2021,08,13,16,48,27.80
2021,08,13,16,49,27.80
2021,08,13,16,50,27.90
2021,08,13,16,51,27.90
2021,08,13,16,52,27.90
2021,08,13,16,53,27.90
2021,08,13,16,54,27.80
2021,08,13,16,55,27.80
2021,08,13,16,56,27.70
2021,08,13,16,57,27.70
2021,08,13,16,58,27.70
2021,08,13,16,59,27.70
2021,08,13,17,00,27.70
2021,08,13,17,01,27.70
2021,08,13,17,02,27.70
2021,08,13,17,03,27.70
2021,08,13,17,04,27.70
2021,08,13,17,05,27.70
2021,08,13,17,06,27.70
2021,08,13,17,07,27.70
2021,08,13,17,08,27.70
2021,08,13,17,09,27.70
2021,08,13,17,10,27.70
2021,08,13,17,11,27.70
2021,08,13,17,12,27.70
2021,08,13,17,13,27.70
2021,08,13,17,14,27.70
2021,08,13,17,15,27.70
2021,08,13,17,16,27.70
2021,08,13,17,17,27.70
2021,08,13,17,18,27.70
2021,08,13,17,19,27.60
2021,08,13,17,20,27.60
2021,08,13,17,21,27.60
2021,08,13,17,22,27.60
2021,08,13,17,23,27.60
2021,08,13,17,24,27.60
2021,08,13,17,25,27.60
2021,08,13,17,26,27.50
2021,08,13,17,27,27.40
2021,08,13,17,28,27.40
2021,08,13,17,29,27.30
2021,08,13,17,30,27.30
2021,08,13,17,31,27.30
2021,08,13,17,32,27.20
2021,08,13,17,33,27.10
2021,08,13,17,34,27.10
2021,08,13,17,35,27.00
2021,08,13,17,36,26.90
2021,08,13,17,37,26.80
2021,08,13,17,38,26.70
2021,08,13,17,39,26.60
2021,08,13,17,40,26.50
2021,08,13,17,41,26.40
2021,08,13,17,42,26.30
2021,08,13,17,43,26.10
2021,08,13,17,44,26.00
2021,08,13,17,45,25.90
2021,08,13,17,46,25.80
2021,08,13,17,47,25.80
2021,08,13,17,48,25.70
2021,08,13,17,49,25.60
2021,08,13,17,50,25.50
2021,08,13,17,51,25.50
2021,08,13,17,52,25.50
2021,08,13,17,53,25.50
2021,08,13,17,54,25.50
2021,08,13,17,55,25.50
2021,08,13,17,56,25.50
2021,08,13,17,57,25.50
2021,08,13,17,58,25.40
2021,08,13,17,59,25.40
2021,08,13,18,00,25.40
2021,08,13,18,01,25.30
2021,08,13,18,02,25.30
2021,08,13,18,03,25.20
2021,08,13,18,04,25.20
2021,08,13,18,05,25.20
2021,08,13,18,06,25.20
2021,08,13,18,07,25.20
2021,08,13,18,08,25.20
2021,08,13,18,09,25.20
2021,08,13,18,10,25.20
2021,08,13,18,11,25.20
2021,08,13,18,12,25.20
2021,08,13,18,13,25.20
2021,08,13,18,14,25.20
2021,08,13,18,15,25.20
2021,08,13,18,16,25.20
2021,08,13,18,17,25.20
2021,08,13,18,18,25.20
2021,08,13,18,19,25.10
2021,08,13,18,20,25.10
2021,08,13,18,21,25.00
2021,08,13,18,22,25.00
2021,08,13,18,23,24.90
2021,08,13,18,24,24.90
2021,08,13,18,25,24.90
2021,08,13,18,26,24.90
2021,08,13,18,27,24.80
2021,08,13,18,28,24.80
2021,08,13,18,29,24.70
2021,08,13,18,30,24.60
2021,08,13,18,31,24.60
2021,08,13,18,32,24.50
2021,08,13,18,33,24.50
2021,08,13,18,34,24.40
2021,08,13,18,35,24.40
2021,08,13,18,36,24.40
2021,08,13,18,37,24.30
2021,08,13,18,38,24.30
2021,08,13,18,39,24.20
2021,08,13,18,40,24.20
2021,08,13,18,41,24.20
2021,08,13,18,42,24.20
2021,08,13,18,43,24.10
2021,08,13,18,44,24.10
2021,08,13,18,45,24.10
2021,08,13,18,46,24.10
2021,08,13,18,47,24.10
2021,08,13,18,48,24.10
2021,08,13,18,49,24.00
2021,08,13,18,50,23.90
2021,08,13,18,51,23.80
2021,08,13,18,52,23.80
2021,08,13,18,53,23.70
2021,08,13,18,54,23.70
2021,08,13,18,55,23.70
2021,08,13,18,56,23.70
2021,08,13,18,57,23.60
2021,08,13,18,58,23.40
2021,08,13,18,59,23.30
2021,08,13,19,00,23.30
2021,08,13,19,01,23.20
2021,08,13,19,02,23.10
2021,08,13,19,03,23.10
2021,08,13,19,04,23.10
2021,08,13,19,05,23.10
2021,08,13,19,06,23.10
2021,08,13,19,07,23.10
2021,08,13,19,08,23.10
2021,08,13,19,09,23.10
2021,08,13,19,10,23.10
2021,08,13,19,11,23.10
2021,08,13,19,12,23.10
2021,08,13,19,13,23.10
